Time,TemperatureF,DewpointF,PressureIn,WindDirection,WindDirectionDegrees,WindSpeedMPH,WindSpeedGustMPH,Humidity,HourlyPrecipIn,Conditions,Clouds,dailyrainin,SolarRadiationWatts/m^2,SoftwareType,DateUTC
2013-11-25 00:21:00,30.0,27.0,-100.00,NNE,26,4.0,5.0,87,-99.99,,,0.00,0.000000,,2013-11-25 08:21:00,
2013-11-25 00:32:00,30.0,27.0,-100.00,NNE,26,4.0,5.0,87,-99.99,,,0.00,0.000000,,2013-11-25 08:32:00,
2013-11-25 00:42:00,30.0,27.0,-100.00,NNE,26,4.0,5.0,87,-99.99,,,0.00,0.000000,,2013-11-25 08:42:00,
2013-11-25 01:21:00,31.0,28.0,-100.00,NNE,18,3.0,5.0,87,-99.99,,,-99.99,0.000000,,2013-11-25 09:21:00,
2013-11-25 01:33:00,31.0,28.0,-100.00,NNE,18,3.0,5.0,87,-99.99,,,-99.99,0.000000,,2013-11-25 09:33:00,
2013-11-25 01:43:00,31.0,28.0,-100.00,NNE,18,3.0,5.0,87,-99.99,,,-99.99,0.000000,,2013-11-25 09:43:00,
2013-11-25 02:23:00,31.0,27.0,-100.00,NNE,26,4.0,5.0,86,-99.99,,,0.00,0.000000,,2013-11-25 10:23:00,
2013-11-25 02:34:00,31.0,27.0,-100.00,NNE,26,4.0,5.0,86,-99.99,,,0.00,0.000000,,2013-11-25 10:34:00,
2013-11-25 02:42:00,31.0,27.0,-100.00,NNE,26,4.0,5.0,86,-99.99,,,0.00,0.000000,,2013-11-25 10:42:00,
2013-11-25 03:22:00,31.0,27.0,-100.00,NNE,27,4.0,6.0,86,-99.99,,,0.00,0.000000,,2013-11-25 11:22:00,
2013-11-25 03:33:00,31.0,27.0,-100.00,NNE,27,4.0,6.0,86,-99.99,,,0.00,0.000000,,2013-11-25 11:33:00,
2013-11-25 03:43:00,31.0,27.0,-100.00,NNE,27,4.0,6.0,86,-99.99,,,0.00,0.000000,,2013-11-25 11:43:00,
2013-11-25 04:21:00,30.0,27.0,-100.00,NNE,28,5.0,7.0,86,-99.99,,,0.00,0.000000,,2013-11-25 12:21:00,
2013-11-25 04:32:00,30.0,27.0,-100.00,NNE,28,5.0,7.0,86,-99.99,,,0.00,0.000000,,2013-11-25 12:32:00,
2013-11-25 04:42:00,30.0,27.0,-100.00,NNE,28,5.0,7.0,86,-99.99,,,0.00,0.000000,,2013-11-25 12:42:00,
2013-11-25 05:21:00,30.0,26.0,-100.00,NNE,26,4.0,6.0,86,-99.99,,,0.00,0.000000,,2013-11-25 13:21:00,
2013-11-25 05:32:00,30.0,26.0,-100.00,NNE,26,4.0,6.0,86,-99.99,,,0.00,0.000000,,2013-11-25 13:32:00,
2013-11-25 05:42:00,30.0,26.0,-100.00,NNE,26,4.0,6.0,86,-99.99,,,0.00,0.000000,,2013-11-25 13:42:00,
2013-11-25 06:22:00,30.0,26.0,-100.00,NNE,23,4.0,6.0,87,-99.99,,,0.00,0.000000,,2013-11-25 14:22:00,
2013-11-25 06:32:00,30.0,26.0,-100.00,NNE,23,4.0,6.0,87,-99.99,,,0.00,0.000000,,2013-11-25 14:32:00,
2013-11-25 06:42:00,30.0,26.0,-100.00,NNE,23,4.0,6.0,87,-99.99,,,0.00,0.000000,,2013-11-25 14:42:00,
2013-11-25 07:21:00,29.0,26.0,-100.00,NNE,32,4.0,5.0,88,-99.99,,,0.00,0.000000,,2013-11-25 15:21:00,
2013-11-25 07:33:00,29.0,26.0,-100.00,NNE,32,4.0,5.0,88,-99.99,,,0.00,0.000000,,2013-11-25 15:33:00,
2013-11-25 07:44:00,29.0,26.0,-100.00,NNE,32,4.0,5.0,88,-99.99,,,0.00,0.000000,,2013-11-25 15:44:00,
2013-11-25 08:13:00,29.0,26.0,-100.00,NNE,29,4.0,5.0,88,-99.99,,,0.00,0.350000,,2013-11-25 16:13:00,
2013-11-25 08:23:00,29.0,26.0,-100.00,NNE,29,4.0,5.0,88,-99.99,,,0.00,0.350000,,2013-11-25 16:23:00,
2013-11-25 08:33:00,29.0,26.0,-100.00,NNE,29,4.0,5.0,88,-99.99,,,0.00,0.350000,,2013-11-25 16:33:00,
2013-11-25 08:43:00,29.0,26.0,-100.00,NNE,29,4.0,5.0,88,-99.99,,,0.00,0.350000,,2013-11-25 16:43:00,
2013-11-25 09:22:00,30.0,27.0,-100.00,NE,45,4.0,6.0,88,-99.99,,,0.00,23.129999,,2013-11-25 17:22:00,
2013-11-25 09:33:00,30.0,27.0,-100.00,NE,45,4.0,6.0,88,-99.99,,,0.00,23.129999,,2013-11-25 17:33:00,
2013-11-25 09:43:00,30.0,27.0,-100.00,NE,45,4.0,6.0,88,-99.99,,,0.00,23.129999,,2013-11-25 17:43:00,
2013-11-25 10:21:00,32.0,28.0,-100.00,NE,41,2.0,4.0,85,-99.99,,,0.00,94.599998,,2013-11-25 18:21:00,
2013-11-25 10:33:00,32.0,28.0,-100.00,NE,41,2.0,4.0,85,-99.99,,,0.00,94.599998,,2013-11-25 18:33:00,
2013-11-25 10:42:00,32.0,28.0,-100.00,NE,41,2.0,4.0,85,-99.99,,,0.00,94.599998,,2013-11-25 18:42:00,
2013-11-25 11:00:00,36.0,30.0,-100.00,SW,219,5.0,8.0,78,-99.99,,,0.00,352.839996,,2013-11-25 19:00:00,
2013-11-25 11:52:00,36.0,30.0,-100.00,SW,219,5.0,8.0,78,-99.99,,,0.00,352.839996,,2013-11-25 19:52:00,
2013-11-25 12:21:00,36.0,31.0,-100.00,SW,232,4.0,7.0,78,-99.99,,,0.00,377.250000,,2013-11-25 20:21:00,
2013-11-25 12:32:00,36.0,31.0,-100.00,SW,232,4.0,7.0,78,-99.99,,,0.00,377.250000,,2013-11-25 20:32:00,
2013-11-25 12:42:00,36.0,31.0,-100.00,SW,232,4.0,7.0,78,-99.99,,,0.00,377.250000,,2013-11-25 20:42:00,
2013-11-25 13:22:00,40.0,31.0,-100.00,SSE,167,2.0,4.0,70,-99.99,,,0.00,383.059998,,2013-11-25 21:22:00,
2013-11-25 13:33:00,40.0,31.0,-100.00,SSE,167,2.0,4.0,70,-99.99,,,0.00,383.059998,,2013-11-25 21:33:00,
2013-11-25 13:43:00,40.0,31.0,-100.00,SSE,167,2.0,4.0,70,-99.99,,,0.00,383.059998,,2013-11-25 21:43:00,
2013-11-25 14:23:00,43.0,33.0,-100.00,SSW,204,2.0,4.0,68,-99.99,,,0.00,360.510010,,2013-11-25 22:23:00,
2013-11-25 14:33:00,43.0,33.0,-100.00,SSW,204,2.0,4.0,68,-99.99,,,0.00,360.510010,,2013-11-25 22:33:00,
2013-11-25 14:43:00,43.0,33.0,-100.00,SSW,204,2.0,4.0,68,-99.99,,,0.00,360.510010,,2013-11-25 22:43:00,
2013-11-25 15:22:00,43.0,34.0,-100.00,SW,235,2.0,4.0,68,-99.99,,,0.00,172.009995,,2013-11-25 23:22:00,
2013-11-25 15:33:00,43.0,34.0,-100.00,SW,235,2.0,4.0,68,-99.99,,,0.00,172.009995,,2013-11-25 23:33:00,
2013-11-25 15:42:00,43.0,34.0,-100.00,SW,235,2.0,4.0,68,-99.99,,,0.00,172.009995,,2013-11-25 23:42:00,
2013-11-25 16:21:00,44.0,33.0,-100.00,South,189,1.0,2.0,63,-99.99,,,0.00,123.540001,,2013-11-26 00:21:00,
2013-11-25 16:32:00,44.0,33.0,-100.00,South,189,1.0,2.0,63,-99.99,,,0.00,123.540001,,2013-11-26 00:32:00,
2013-11-25 16:42:00,44.0,33.0,-100.00,South,189,1.0,2.0,63,-99.99,,,0.00,123.540001,,2013-11-26 00:42:00,
2013-11-25 17:21:00,40.0,32.0,-100.00,NNE,31,2.0,3.0,72,-99.99,,,0.00,22.780001,,2013-11-26 01:21:00,
2013-11-25 17:32:00,40.0,32.0,-100.00,NNE,31,2.0,3.0,72,-99.99,,,0.00,22.780001,,2013-11-26 01:32:00,
2013-11-25 17:42:00,40.0,32.0,-100.00,NNE,31,2.0,3.0,72,-99.99,,,0.00,22.780001,,2013-11-26 01:42:00,
2013-11-25 18:22:00,38.0,31.0,-100.00,NNE,23,4.0,5.0,75,-99.99,,,0.00,0.120000,,2013-11-26 02:22:00,
2013-11-25 18:32:00,38.0,31.0,-100.00,NNE,23,4.0,5.0,75,-99.99,,,0.00,0.120000,,2013-11-26 02:32:00,
2013-11-25 18:42:00,38.0,31.0,-100.00,NNE,23,4.0,5.0,75,-99.99,,,0.00,0.120000,,2013-11-26 02:42:00,
2013-11-25 19:22:00,36.0,30.0,-100.00,NNE,23,4.0,5.0,78,-99.99,,,-99.99,0.000000,,2013-11-26 03:22:00,
2013-11-25 19:33:00,36.0,30.0,-100.00,NNE,23,4.0,5.0,78,-99.99,,,-99.99,0.000000,,2013-11-26 03:33:00,
2013-11-25 19:44:00,36.0,30.0,-100.00,NNE,23,4.0,5.0,78,-99.99,,,-99.99,0.000000,,2013-11-26 03:44:00,
2013-11-25 20:23:00,35.0,29.0,-100.00,NNE,22,5.0,5.0,80,-99.99,,,0.00,0.000000,,2013-11-26 04:23:00,
2013-11-25 20:34:00,35.0,29.0,-100.00,NNE,22,5.0,5.0,80,-99.99,,,0.00,0.000000,,2013-11-26 04:34:00,
2013-11-25 20:43:00,35.0,29.0,-100.00,NNE,22,5.0,5.0,80,-99.99,,,0.00,0.000000,,2013-11-26 04:43:00,
2013-11-25 21:23:00,34.0,29.0,-100.00,NNE,29,4.0,6.0,82,-99.99,,,0.00,0.000000,,2013-11-26 05:23:00,
2013-11-25 21:33:00,34.0,29.0,-100.00,NNE,29,4.0,6.0,82,-99.99,,,0.00,0.000000,,2013-11-26 05:33:00,
2013-11-25 21:42:00,34.0,29.0,-100.00,NNE,29,4.0,6.0,82,-99.99,,,0.00,0.000000,,2013-11-26 05:42:00,
2013-11-25 22:12:00,33.0,29.0,-100.00,NE,49,5.0,7.0,86,-99.99,,,0.00,0.000000,,2013-11-26 06:12:00,
2013-11-25 22:22:00,33.0,29.0,-100.00,NE,49,5.0,7.0,86,-99.99,,,0.00,0.000000,,2013-11-26 06:22:00,
2013-11-25 22:32:00,33.0,29.0,-100.00,NE,49,5.0,7.0,86,-99.99,,,0.00,0.000000,,2013-11-26 06:32:00,
2013-11-25 22:42:00,33.0,29.0,-100.00,NE,49,5.0,7.0,86,-99.99,,,0.00,0.000000,,2013-11-26 06:42:00,
2013-11-25 23:21:00,32.0,29.0,-100.00,NNE,25,4.0,6.0,87,-99.99,,,0.00,0.000000,,2013-11-26 07:21:00,
2013-11-25 23:32:00,32.0,29.0,-100.00,NNE,25,4.0,6.0,87,-99.99,,,0.00,0.000000,,2013-11-26 07:32:00,
2013-11-25 23:42:00,32.0,29.0,-100.00,NNE,25,4.0,6.0,87,-99.99,,,0.00,0.000000,,2013-11-26 07:42:00,